Date,TemperatureHighF,TemperatureAvgF,TemperatureLowF,DewpointHighF,DewpointAvgF,DewpointLowF,HumidityHigh,HumidityAvg,HumidityLow,PressureMaxIn,PressureMinIn,WindSpeedMaxMPH,WindSpeedAvgMPH,GustSpeedMaxMPH,PrecipitationSumIn
2013-1-1,40,36,28,32,27,14,82,68,55,29.77,29.59,14,2,14,0.02
2013-1-2,34,28,23,19,16,13,77,62,49,29.93,29.75,11,1,11,0.00
2013-1-3,33,28,22,22,18,17,87,67,53,29.94,29.82,10,1,11,0.00
2013-1-4,38,33,25,25,23,20,87,68,58,29.84,29.71,18,2,19,0.00
2013-1-5,43,34,27,26,23,20,87,65,47,30.04,29.77,13,1,13,0.00
2013-1-6,47,37,30,34,30,26,93,75,50,29.97,29.72,13,1,13,0.00
2013-1-7,46,34,25,33,26,22,94,75,45,30.15,29.80,11,1,12,0.00
2013-1-8,49,34,22,35,28,21,95,81,54,30.16,30.08,11,1,11,0.00
2013-1-9,47,36,24,40,32,23,95,85,72,30.14,29.89,8,0,8,0.00
2013-1-10,49,41,32,35,28,26,86,63,41,30.29,29.99,11,1,12,0.00
2013-1-11,45,38,30,43,35,27,97,89,73,30.28,29.84,3,0,5,0.49
2013-1-12,49,45,41,47,44,40,98,96,92,29.92,29.83,3,0,3,0.00
2013-1-13,49,46,44,49,46,43,99,99,97,29.90,29.75,4,0,4,0.01
2013-1-14,57,50,40,54,44,28,99,82,44,30.05,29.66,11,1,11,0.06
2013-1-15,40,37,35,37,32,29,93,80,69,30.09,29.95,8,0,9,0.10
2013-1-16,36,34,32,35,33,32,99,97,90,29.96,29.56,8,0,8,0.51
2013-1-17,44,38,35,35,32,26,98,77,59,29.84,29.66,11,1,11,0.15
2013-1-18,36,29,25,28,15,6,75,57,36,30.22,29.74,14,2,14,0.00
2013-1-19,50,38,26,32,26,15,78,61,42,30.14,29.67,14,1,14,0.00
2013-1-20,54,41,30,33,24,14,92,55,25,29.80,29.45,23,3,29,0.00
2013-1-21,32,28,21,20,15,11,82,59,47,29.84,29.59,11,1,11,0.00
2013-1-22,26,19,13,12,3,-4,59,48,34,29.96,29.59,18,3,20,0.00
2013-1-23,19,14,8,6,1,-4,86,57,42,30.00,29.91,14,2,14,0.00
2013-1-24,24,16,6,9,3,-1,91,61,33,30.17,29.87,18,2,18,0.00
2013-1-25,24,17,11,16,7,-1,88,65,45,30.18,29.81,9,1,9,0.00
2013-1-26,29,18,7,13,8,4,92,67,44,30.13,29.80,12,2,13,0.00
2013-1-27,36,23,11,17,12,7,91,65,37,30.27,30.13,12,1,12,0.00
2013-1-28,34,29,19,33,26,14,96,90,79,30.24,29.75,7,0,7,0.01
2013-1-29,54,42,34,45,39,33,98,91,70,29.88,29.75,5,0,5,0.02
2013-1-30,67,50,39,63,49,39,99,95,79,29.82,29.08,21,1,22,0.18
2013-1-31,62,44,29,60,32,12,97,64,39,29.55,28.79,29,6,32,0.97
2013-2-1,33,28,23,20,14,5,78,57,32,29.98,29.54,20,3,20,0.00
2013-2-2,30,23,18,22,12,8,92,63,42,30.05,29.79,14,2,14,0.00
2013-2-3,31,25,21,23,20,17,93,82,66,29.79,29.54,8,0,8,0.03
2013-2-4,31,26,21,22,14,11,91,63,45,29.73,29.56,18,2,22,0.00
2013-2-5,31,29,25,28,25,18,93,87,75,29.72,29.64,5,0,5,0.00
2013-2-6,40,32,26,29,23,13,97,71,48,30.10,29.66,15,1,15,0.01
2013-2-7,33,28,19,21,16,12,87,63,45,30.24,30.05,5,0,5,0.00
2013-2-8,34,32,30,33,30,20,96,89,67,30.05,29.40,14,3,15,0.05
2013-2-9,35,29,21,30,19,9,96,68,39,30.10,29.51,18,3,20,0.13
2013-2-10,41,26,9,24,14,6,90,64,30,30.22,30.06,7,0,7,0.21
2013-2-11,42,35,28,41,33,22,98,92,73,30.07,29.41,3,0,3,0.25
2013-2-12,46,40,29,37,28,24,98,65,48,29.73,29.48,16,2,16,0.01
2013-2-13,45,34,22,33,26,20,96,77,50,29.71,29.42,5,0,6,0.00
2013-2-14,48,37,29,35,30,26,97,77,46,29.75,29.46,10,0,10,0.09
2013-2-15,56,40,26,36,31,25,97,73,41,29.76,29.66,14,1,14,0.02
2013-2-16,40,35,30,35,27,14,95,72,52,29.72,29.50,10,1,10,0.05
2013-2-17,32,27,18,15,8,3,59,45,33,29.78,29.45,28,4,28,0.00
2013-2-18,36,26,17,17,9,4,59,49,35,30.00,29.78,16,2,16,0.00
2013-2-19,46,35,22,42,30,16,96,81,54,29.93,29.43,20,1,22,0.42
2013-2-20,37,30,25,27,16,11,66,55,44,29.75,29.48,22,4,22,0.00
2013-2-21,35,28,24,18,15,12,70,58,45,30.03,29.73,18,4,18,0.00
2013-2-22,38,30,22,30,23,16,86,74,60,30.14,30.00,6,0,6,0.00
2013-2-23,41,38,34,40,37,30,98,96,86,30.01,29.55,8,0,8,0.17
2013-2-24,47,38,33,40,32,23,98,80,57,29.74,29.51,17,2,17,0.01
2013-2-25,44,36,26,30,28,23,93,72,55,29.99,29.74,10,1,10,0.00
2013-2-26,44,36,26,35,31,24,96,82,64,30.02,29.60,13,2,13,0.12
2013-2-27,48,42,36,47,40,35,97,91,76,29.62,29.25,16,3,16,0.34
2013-2-28,50,41,36,39,34,29,98,78,56,29.38,29.30,9,1,10,0.00
2013-3-1,46,38,28,33,30,26,96,74,53,29.54,29.37,12,2,12,0.00
2013-3-2,39,35,31,27,25,22,78,67,57,29.54,29.46,14,2,14,0.00
2013-3-3,38,32,29,23,21,18,71,62,51,29.54,29.43,15,3,16,0.00
2013-3-4,43,34,27,24,21,17,71,59,43,29.68,29.53,19,3,19,0.00
2013-3-5,51,39,31,30,26,22,81,61,41,29.77,29.68,12,1,12,0.00
2013-3-6,43,40,35,36,33,29,87,77,65,29.71,29.57,24,5,24,0.00
2013-3-7,42,37,34,36,31,27,93,77,65,29.84,29.67,21,3,21,0.07
2013-3-8,43,36,31,37,32,28,96,86,65,29.95,29.76,10,1,10,0.25
2013-3-9,59,42,27,28,23,8,94,55,14,30.07,29.93,11,1,11,0.00
2013-3-10,52,38,26,38,31,24,96,78,55,30.13,30.03,6,1,6,0.00
2013-3-11,57,46,35,49,42,32,97,86,53,30.07,29.83,13,1,13,0.00
2013-3-12,58,53,44,56,50,38,96,90,75,29.83,29.41,16,2,16,0.78
2013-3-13,52,43,35,39,32,24,94,67,36,29.65,29.55,18,2,18,0.00
2013-3-14,43,35,30,26,15,8,64,44,27,29.72,29.60,19,4,20,0.00
2013-3-15,47,38,28,32,22,12,63,52,41,29.74,29.46,17,2,17,0.00
2013-3-16,44,35,31,32,29,22,92,78,57,29.66,29.52,5,0,5,0.04
2013-3-17,38,33,29,31,22,17,92,65,44,30.05,29.66,13,1,13,0.00
2013-3-18,36,31,24,32,22,12,96,72,53,30.14,29.74,8,1,8,0.05
2013-3-19,49,39,33,39,33,18,97,82,42,29.74,29.44,17,2,20,0.54
2013-3-20,46,38,32,25,21,16,65,50,31,29.64,29.52,19,3,19,0.00
2013-3-21,40,34,30,30,20,12,90,57,35,29.58,29.38,10,2,11,0.00
2013-3-22,42,34,25,24,20,14,74,57,39,29.65,29.49,20,2,20,0.00
2013-3-23,47,38,32,24,22,18,69,52,34,29.69,29.58,17,3,19,0.00
2013-3-24,47,39,26,29,23,20,81,54,38,29.70,29.44,11,1,11,0.00
2013-3-25,39,37,34,36,32,27,95,81,61,29.45,29.23,10,1,11,0.11
2013-3-26,51,42,31,36,31,25,97,69,37,29.62,29.35,11,1,12,0.01
2013-3-27,52,41,29,33,29,22,90,65,31,29.75,29.62,13,2,14,0.00
2013-3-28,51,42,30,33,31,27,93,64,46,29.86,29.72,13,2,13,0.00
2013-3-29,55,43,29,32,29,27,94,62,35,29.90,29.81,12,1,13,0.00
2013-3-30,60,44,28,36,26,18,96,56,21,29.92,29.80,14,1,14,0.00
2013-3-31,57,43,29,44,34,24,96,73,37,29.87,29.43,12,1,12,0.13
2013-4-1,62,48,37,48,37,13,98,71,32,29.67,29.38,24,2,24,0.01
2013-4-2,44,37,27,21,15,11,71,43,27,29.83,29.67,18,3,19,0.00
2013-4-3,46,36,24,20,16,10,79,45,26,30.06,29.84,16,3,17,0.00
2013-4-4,56,41,26,26,21,14,82,47,28,30.14,29.82,13,1,13,0.00
2013-4-5,64,49,40,33,26,18,73,44,19,29.82,29.47,16,2,17,0.00
2013-4-6,55,43,34,29,18,8,63,38,18,30.05,29.75,15,2,16,0.00
2013-4-7,65,50,37,45,35,28,79,59,30,30.05,29.73,17,2,18,0.00
2013-4-8,77,60,43,48,44,36,93,59,25,29.82,29.72,12,1,12,0.00
2013-4-9,84,67,50,54,46,35,91,52,19,29.72,29.64,21,2,21,0.00
2013-4-10,84,66,56,58,53,46,97,65,39,29.69,29.55,13,1,17,0.38
2013-4-11,60,56,48,59,52,43,98,87,69,29.77,29.51,10,1,10,0.03
2013-4-12,49,44,42,44,42,40,96,93,75,29.75,29.46,11,2,12,0.44
2013-4-13,59,49,38,44,39,34,98,73,42,29.72,29.49,17,1,17,0.02
2013-4-14,60,51,40,41,34,28,94,58,32,29.95,29.71,15,2,15,0.00
2013-4-15,61,50,42,42,35,29,82,57,38,30.12,29.95,8,1,9,0.00
2013-4-16,72,59,47,57,50,42,90,74,54,30.11,29.85,16,1,16,0.00
2013-4-17,72,63,51,58,43,30,91,54,21,30.04,29.86,10,1,10,0.00
2013-4-18,57,51,44,52,46,40,96,82,67,30.08,29.83,7,1,7,0.00
2013-4-19,80,66,53,66,61,52,98,84,58,29.84,29.37,17,2,17,0.33
2013-4-20,59,52,46,54,36,24,95,58,33,30.05,29.45,26,3,26,0.18
2013-4-21,56,45,34,33,25,20,72,47,26,30.35,30.06,13,1,13,0.00
2013-4-22,54,44,31,38,33,29,96,67,45,30.39,30.22,10,2,10,0.00
2013-4-23,51,45,40,43,38,33,87,78,67,30.21,29.87,10,1,10,0.00
2013-4-24,75,55,33,55,46,31,98,74,47,29.87,29.55,13,1,13,0.00
2013-4-25,67,56,44,55,33,23,82,46,19,30.01,29.60,19,2,20,0.00
2013-4-26,68,52,35,38,32,22,94,52,20,30.15,30.01,14,1,14,0.00
2013-4-27,72,56,36,38,33,25,95,49,19,30.18,30.01,12,1,12,0.00
2013-4-28,73,57,38,43,37,29,93,52,29,30.06,29.92,13,1,14,0.00
2013-4-29,57,53,51,52,50,42,96,88,57,29.98,29.92,6,0,7,0.12
2013-4-30,66,56,43,51,42,26,95,65,25,30.08,29.94,8,1,8,0.00
2013-5-1,69,52,34,46,38,26,97,63,25,30.23,30.08,9,1,9,0.00
2013-5-2,76,57,36,49,42,34,98,64,30,30.22,30.06,12,0,12,0.00
2013-5-3,67,56,46,46,41,34,85,60,32,30.19,30.09,10,1,10,0.00
2013-5-4,72,53,38,47,42,36,97,69,34,30.12,29.97,7,1,8,0.00
2013-5-5,66,51,39,47,41,37,96,73,43,30.04,29.97,8,0,8,0.00
2013-5-6,71,55,39,56,48,37,96,79,56,30.01,29.90,8,0,8,0.00
2013-5-7,74,59,43,60,53,41,98,81,60,29.92,29.83,7,0,8,0.00
2013-5-8,68,61,54,63,59,52,98,93,83,29.84,29.70,8,0,8,0.62
2013-5-9,69,59,52,60,55,51,98,88,66,29.75,29.64,7,0,7,0.12
2013-5-10,82,66,48,62,56,47,98,73,40,29.76,29.64,8,0,8,0.09
2013-5-11,73,65,60,66,63,59,97,93,76,29.67,29.45,14,0,14,1.08
2013-5-12,66,59,50,60,43,28,97,61,27,29.70,29.43,16,2,17,0.01
2013-5-13,56,47,36,37,32,25,94,57,32,29.87,29.70,16,1,16,0.00
2013-5-14,63,48,33,37,31,20,96,58,20,29.89,29.77,12,1,12,0.00
2013-5-15,76,59,40,59,49,35,93,72,49,29.82,29.43,9,0,9,0.00
2013-5-16,84,67,53,63,56,49,98,73,36,29.59,29.47,8,0,8,0.00
2013-5-17,76,62,51,54,45,38,91,56,27,29.95,29.59,8,0,8,0.00
2013-5-18,63,56,48,57,52,46,95,87,73,30.05,29.95,4,0,4,0.00
2013-5-19,58,57,55,58,56,54,98,97,89,30.05,29.91,3,0,3,0.35
2013-5-20,79,66,57,68,63,57,99,89,68,29.93,29.71,7,0,8,0.00
2013-5-21,87,73,59,74,67,58,99,82,57,29.73,29.60,9,1,9,0.00
2013-5-22,84,72,64,74,68,62,98,88,70,29.68,29.57,6,0,6,0.00
2013-5-23,80,72,68,72,69,66,98,91,71,29.64,29.50,9,0,10,1.25
2013-5-24,68,55,45,66,53,42,98,92,81,29.72,29.45,10,0,10,0.29
2013-5-25,57,50,44,45,42,36,95,74,51,29.77,29.67,19,1,19,0.11
2013-5-26,68,57,47,42,38,32,80,53,29,29.96,29.74,15,2,15,0.00
2013-5-27,75,58,38,48,41,36,97,60,28,30.00,29.88,8,0,9,0.00
2013-5-28,63,56,48,58,53,45,98,91,73,29.98,29.88,1,0,1,0.39
2013-5-29,88,70,58,72,64,57,99,83,51,29.88,29.75,10,0,10,0.01
2013-5-30,92,79,66,69,66,63,97,69,39,29.89,29.81,7,0,7,0.00
2013-5-31,93,78,64,73,66,56,98,69,32,29.88,29.74,7,0,7,0.00
2013-6-1,94,78,63,72,67,61,98,72,43,29.78,29.65,9,0,9,0.00
2013-6-2,88,80,72,72,69,67,89,72,53,29.67,29.53,11,1,12,0.00
2013-6-3,81,73,68,71,66,52,96,80,57,29.65,29.54,9,0,10,0.11
2013-6-4,77,66,56,52,47,43,77,52,31,29.87,29.65,8,1,8,0.00
2013-6-5,73,62,47,54,49,42,94,65,39,29.96,29.86,5,0,5,0.00
2013-6-6,72,62,53,61,58,52,97,86,58,29.90,29.75,5,0,5,0.13
2013-6-7,63,61,60,63,61,60,98,98,96,29.75,29.36,5,0,5,3.29
2013-6-8,77,67,57,66,62,56,99,85,64,29.81,29.35,6,0,6,0.04
2013-6-9,82,68,56,65,60,54,98,77,47,29.93,29.81,9,0,9,0.00
2013-6-10,68,65,63,67,64,62,99,97,95,29.91,29.55,5,0,5,0.73
2013-6-11,80,73,68,69,66,62,99,82,61,29.55,29.39,12,1,12,0.01
2013-6-12,80,70,60,63,58,54,94,68,44,29.61,29.48,11,1,11,0.00
2013-6-13,65,61,57,63,60,56,98,96,92,29.60,29.20,5,0,5,0.83
2013-6-14,74,60,54,62,56,52,98,87,59,29.66,29.28,8,0,8,0.33
2013-6-15,80,65,52,63,56,51,99,77,41,29.77,29.65,8,0,8,0.00
2013-6-16,81,69,55,67,60,54,98,77,49,29.75,29.54,12,1,13,0.00
2013-6-17,85,72,62,69,65,60,98,80,52,29.67,29.59,8,0,8,0.00
2013-6-18,82,69,62,72,65,60,98,89,64,29.66,29.55,5,0,5,0.16
2013-6-19,77,66,58,62,56,48,96,73,38,29.92,29.64,4,0,5,0.00
2013-6-20,80,67,52,62,57,52,98,73,43,30.02,29.92,4,0,8,0.00
2013-6-21,83,70,55,62,57,53,96,67,44,30.06,29.98,7,0,8,0.00
2013-6-22,84,71,55,68,61,54,96,73,52,30.02,29.87,9,0,9,0.00
2013-6-23,88,75,62,73,68,61,97,80,57,29.95,29.81,10,0,10,0.00
2013-6-24,92,77,68,74,70,62,98,80,46,29.83,29.71,9,0,9,0.05
2013-6-25,91,76,64,78,70,64,99,84,50,29.76,29.57,15,0,15,0.21
2013-6-26,86,77,70,74,69,66,98,79,55,29.61,29.53,7,0,7,0.00
2013-6-27,87,76,69,76,72,68,98,87,62,29.58,29.31,10,0,10,1.33
2013-6-28,86,77,71,72,70,67,97,81,57,29.32,29.23,8,0,12,0.00
2013-6-29,86,75,65,70,67,64,98,79,51,29.45,29.25,7,0,8,0.00
2013-6-30,83,74,66,78,71,66,98,91,75,29.66,29.45,6,0,8,0.11
2013-7-1,77,74,72,75,73,71,98,95,92,29.80,29.60,18,0,18,1.13
2013-7-2,84,77,73,77,73,72,97,89,73,29.93,29.79,8,0,8,0.01
2013-7-3,87,77,72,77,73,70,96,87,67,30.00,29.92,8,0,8,0.00
2013-7-4,89,80,73,77,74,72,97,83,62,30.00,29.91,9,0,10,0.00
2013-7-5,91,81,72,76,73,70,97,78,54,29.97,29.84,10,0,10,0.00
2013-7-6,93,82,75,77,74,71,93,77,53,29.90,29.78,8,0,9,0.00
2013-7-7,94,82,72,79,74,70,97,78,55,29.83,29.69,13,0,14,0.04
2013-7-8,88,77,69,73,70,68,96,79,55,29.81,29.73,8,0,8,0.00
2013-7-9,87,76,67,75,71,66,97,84,63,29.83,29.74,8,0,8,0.03
2013-7-10,87,78,71,77,73,70,99,86,63,29.77,29.57,9,0,10,0.05
2013-7-11,83,78,70,75,71,66,92,81,66,29.68,29.56,5,0,5,0.00
2013-7-12,76,71,67,71,68,64,97,88,76,29.84,29.68,3,0,3,0.12
2013-7-13,80,72,68,77,71,67,99,97,89,30.03,29.83,4,0,4,0.33
2013-7-14,90,80,74,77,74,72,99,84,58,30.10,29.99,8,0,9,0.00
2013-7-15,94,81,71,77,74,70,98,80,53,30.02,29.89,6,0,6,0.00
2013-7-16,92,81,69,76,71,66,98,77,45,29.97,29.89,6,0,6,0.00
2013-7-17,94,82,71,76,73,69,98,76,47,29.95,29.82,5,0,5,0.00
2013-7-18,97,85,73,80,74,70,96,74,43,29.83,29.72,6,0,6,0.00
2013-7-19,96,86,75,81,77,74,97,76,51,29.74,29.56,10,0,11,0.00
2013-7-20,92,83,76,77,73,68,88,74,51,29.61,29.49,10,1,10,0.00
2013-7-21,87,78,72,73,70,66,96,76,52,29.71,29.59,3,0,4,0.00
2013-7-22,87,76,70,76,72,67,96,87,66,29.71,29.55,3,0,4,0.33
2013-7-23,87,78,72,76,73,70,98,86,64,29.55,29.33,8,0,8,0.89
2013-7-24,80,73,66,70,65,55,97,77,55,29.69,29.38,7,0,7,0.00
2013-7-25,66,64,62,61,56,52,87,75,68,29.80,29.68,4,0,4,0.00
2013-7-26,83,71,64,66,62,60,90,75,49,29.81,29.75,5,0,6,0.00
2013-7-27,85,71,59,69,63,57,98,77,47,29.81,29.69,6,0,6,0.00
2013-7-28,82,71,65,73,67,63,97,89,73,29.74,29.64,10,0,10,1.96
2013-7-29,82,72,61,69,64,54,98,80,39,29.87,29.70,10,0,10,0.01
2013-7-30,79,68,57,64,59,55,98,77,50,29.93,29.86,4,0,7,0.00
2013-7-31,82,69,57,66,61,56,98,78,48,29.92,29.79,5,0,5,0.00
2013-8-1,70,68,66,69,66,64,98,95,87,29.79,29.59,4,0,4,0.70
2013-8-2,83,72,62,68,66,61,99,83,50,29.68,29.55,9,0,9,0.01
2013-8-3,78,68,63,69,65,62,97,91,71,29.68,29.60,8,0,10,0.07
2013-8-4,78,68,58,64,60,55,98,77,48,29.75,29.62,10,0,10,0.00
2013-8-5,78,64,52,62,54,46,98,74,40,29.82,29.74,7,0,7,0.00
2013-8-6,81,68,55,65,59,54,98,77,43,29.88,29.79,7,0,7,0.00
2013-8-7,79,71,65,70,67,62,96,87,69,29.89,29.81,7,0,7,0.01
2013-8-8,83,73,69,78,72,68,98,94,77,29.82,29.74,10,0,10,1.03
2013-8-9,85,77,72,77,74,71,98,92,74,29.77,29.56,10,0,10,0.09
2013-8-10,83,73,65,73,68,63,98,83,56,29.81,29.63,7,0,7,0.01
2013-8-11,81,69,58,70,62,56,98,79,48,29.88,29.78,5,0,5,0.00
2013-8-12,82,71,66,69,66,64,98,86,56,29.79,29.68,3,0,3,0.66
2013-8-13,78,70,65,72,68,64,98,93,77,29.69,29.45,5,0,5,0.96
2013-8-14,73,64,55,66,55,51,96,75,53,29.82,29.53,13,1,17,0.00
2013-8-15,77,62,49,60,53,47,98,77,41,29.90,29.82,6,0,6,0.00
2013-8-16,79,64,51,66,57,50,98,80,42,29.96,29.88,4,0,4,0.00
2013-8-17,82,66,53,66,59,51,98,79,45,30.03,29.96,4,0,5,0.00
2013-8-18,75,67,61,67,63,59,97,86,66,30.01,29.89,3,0,3,0.00
2013-8-19,76,68,59,67,63,58,98,85,63,29.89,29.80,6,0,6,0.00
2013-8-20,86,72,59,72,65,58,98,82,48,29.89,29.81,5,0,5,0.00
2013-8-21,87,73,61,70,65,60,99,79,44,29.94,29.81,6,0,6,0.00
2013-8-22,78,71,67,74,69,66,98,95,86,29.83,29.64,11,0,11,1.57
2013-8-23,79,71,64,69,64,54,98,81,45,29.86,29.64,6,0,6,0.00
2013-8-24,79,66,56,62,56,49,96,74,39,30.10,29.86,4,0,5,0.00
2013-8-25,81,66,52,62,57,51,98,78,43,30.16,30.00,8,0,8,0.00
2013-8-26,82,71,63,71,64,58,95,79,64,30.00,29.68,9,0,10,0.04
2013-8-27,86,76,69,73,70,68,96,83,57,29.68,29.59,6,0,6,0.03
2013-8-28,81,72,66,74,71,65,98,94,79,29.66,29.60,6,0,6,0.08
2013-8-29,80,72,69,72,69,66,98,91,73,29.79,29.64,3,0,3,0.02
2013-8-30,83,74,69,72,69,66,96,86,64,29.79,29.62,8,0,8,0.00
2013-8-31,85,77,70,77,73,69,96,87,74,29.63,29.54,7,0,8,0.00
2013-9-1,84,76,72,76,73,70,98,90,75,29.61,29.54,8,0,8,0.63
2013-9-2,78,73,70,74,71,69,98,95,85,29.57,29.47,5,0,5,0.14
2013-9-3,81,72,61,71,65,58,98,82,49,29.66,29.47,9,0,9,0.01
2013-9-4,80,67,57,64,60,56,98,80,52,29.77,29.65,8,0,8,0.00
2013-9-5,77,65,54,64,56,46,98,77,37,29.91,29.69,7,0,7,0.00
2013-9-6,70,57,46,54,48,43,98,76,42,30.01,29.90,4,0,5,0.00
2013-9-7,78,61,44,61,52,44,98,77,37,29.89,29.66,8,0,8,0.00
2013-9-8,80,68,57,68,59,46,96,74,39,29.84,29.59,7,0,7,0.00
2013-9-9,72,61,46,61,54,45,98,79,59,29.99,29.84,4,0,4,0.00
2013-9-10,86,74,66,76,69,61,97,85,70,29.92,29.81,10,0,10,0.00
2013-9-11,92,80,70,80,74,69,98,84,63,29.88,29.73,7,0,7,0.00
2013-9-12,85,75,68,77,72,67,98,91,73,29.75,29.44,17,0,17,1.27
2013-9-13,75,67,57,67,61,51,99,82,57,29.63,29.41,9,0,9,0.05
2013-9-14,64,56,46,51,49,45,96,78,61,29.89,29.63,9,0,10,0.00
2013-9-15,71,55,41,58,49,40,98,81,44,29.97,29.83,7,0,7,0.00
2013-9-16,73,60,52,60,54,50,98,83,51,30.00,29.79,5,0,5,0.04
2013-9-17,65,54,44,50,44,39,96,71,43,30.18,30.00,6,0,7,0.00
2013-9-18,71,53,38,54,45,37,98,79,37,30.11,29.94,6,0,6,0.00
2013-9-19,75,57,41,59,50,40,98,80,42,29.95,29.82,8,0,8,0.00
2013-9-20,79,61,46,63,55,45,98,83,50,29.84,29.74,4,0,5,0.00
2013-9-21,78,64,50,67,60,49,98,87,55,29.77,29.40,15,0,15,0.65
2013-9-22,68,61,54,64,53,43,98,76,50,29.68,29.41,11,0,11,0.25
2013-9-23,64,54,45,48,45,42,95,71,51,29.81,29.68,7,0,7,0.00
2013-9-24,73,54,38,53,46,37,98,78,42,29.82,29.64,9,0,9,0.00
2013-9-25,71,54,40,56,48,39,98,82,47,29.72,29.63,4,0,4,0.00
2013-9-26,70,56,44,61,53,43,98,90,67,29.85,29.69,5,0,5,0.00
2013-9-27,67,58,49,58,53,48,98,86,60,30.02,29.85,2,0,3,0.00
2013-9-28,73,59,49,58,53,48,98,83,49,30.08,29.99,3,0,3,0.00
2013-9-29,72,56,45,60,52,44,98,89,59,29.99,29.83,3,0,3,0.00
2013-9-30,74,57,46,58,52,46,99,85,51,29.85,29.73,5,0,5,0.00
2013-10-1,80,61,46,67,56,45,98,86,52,29.77,29.66,5,0,7,0.00
2013-10-2,83,65,49,66,59,49,98,83,51,29.78,29.67,9,0,9,0.00
2013-10-3,77,64,51,66,58,50,98,86,47,29.88,29.78,3,0,3,0.00
2013-10-4,85,68,57,69,63,56,98,85,54,29.83,29.72,9,0,9,0.00
2013-10-5,79,68,64,70,66,63,98,91,71,29.85,29.77,2,0,2,0.00
2013-10-6,69,67,65,68,66,64,98,96,93,29.84,29.77,4,0,5,0.00
2013-10-7,78,66,56,72,64,51,98,94,80,29.77,29.49,15,0,15,0.44
2013-10-8,67,54,45,53,48,44,98,82,48,30.08,29.75,7,0,7,0.02
2013-10-9,61,52,44,52,48,43,98,85,68,30.14,30.03,5,0,5,0.01
2013-10-10,61,56,51,56,52,48,93,86,82,30.03,29.82,5,0,5,0.00
2013-10-11,66,62,57,62,58,54,93,87,83,29.84,29.76,6,0,6,0.03
2013-10-12,72,64,57,60,51,41,86,63,35,30.02,29.81,7,0,7,0.00
2013-10-13,66,58,50,55,53,48,97,82,65,30.13,30.01,5,0,6,0.00
2013-10-14,68,54,43,53,48,42,98,85,51,30.12,29.98,4,0,4,0.00
2013-10-15,72,54,44,58,48,43,98,82,48,30.02,29.88,4,0,4,0.00
2013-10-16,67,58,47,61,55,46,97,90,76,29.88,29.67,3,0,3,0.00
2013-10-17,72,65,60,64,62,59,97,89,72,29.67,29.44,5,0,6,0.01
2013-10-18,67,59,44,63,49,42,95,71,47,29.75,29.43,9,1,14,0.00
2013-10-19,63,51,38,54,45,37,97,83,55,29.75,29.51,4,0,5,0.00
2013-10-20,63,52,39,54,42,34,94,71,35,29.83,29.52,15,1,15,0.01
2013-10-21,67,50,34,46,39,32,98,72,37,29.91,29.74,11,0,11,0.00
2013-10-22,62,50,40,52,46,38,97,85,63,29.74,29.51,9,0,9,0.00
2013-10-23,56,44,35,42,38,34,97,80,57,29.58,29.37,7,0,7,0.00
2013-10-24,54,42,33,38,32,27,96,72,40,29.77,29.52,14,1,14,0.00
2013-10-25,54,40,30,36,32,28,96,75,41,29.99,29.77,13,0,13,0.00
2013-10-26,55,42,26,37,31,24,97,68,40,29.98,29.64,16,1,16,0.00
2013-10-27,58,47,34,37,34,32,91,64,40,29.89,29.61,12,1,12,0.00
2013-10-28,61,43,29,38,34,27,97,74,38,30.06,29.88,11,1,12,0.00
2013-10-29,57,43,34,38,36,32,95,77,46,30.16,30.06,4,0,5,0.00
2013-10-30,60,46,35,52,42,32,95,86,71,30.11,29.93,5,0,6,0.00
2013-10-31,65,57,46,61,54,44,96,92,83,29.98,29.55,7,0,9,0.07
2013-11-1,70,64,51,65,59,49,96,84,61,29.56,29.30,17,2,18,0.25
2013-11-2,68,54,45,53,46,41,97,78,46,29.54,29.38,4,0,9,0.00
2013-11-3,51,44,34,45,33,22,95,67,39,30.21,29.54,10,1,11,0.00
2013-11-4,47,36,30,27,21,16,84,56,32,30.40,30.20,12,0,12,0.00
2013-11-5,56,42,29,43,36,26,94,79,55,30.40,30.23,4,0,5,0.00
2013-11-6,64,51,37,53,45,35,96,81,56,30.25,29.82,9,0,12,0.00
2013-11-7,62,53,35,58,49,32,97,86,64,29.82,29.51,11,1,12,0.01
2013-11-8,49,41,32,38,31,27,94,68,42,29.98,29.70,13,1,14,0.00
2013-11-9,51,40,28,33,30,26,96,69,42,30.05,29.74,9,0,10,0.00
2013-11-10,59,46,33,40,34,29,95,65,43,29.81,29.58,22,2,23,0.00
2013-11-11,54,47,33,35,31,27,78,55,43,29.97,29.71,15,1,15,0.00
2013-11-12,50,38,29,37,26,18,86,61,49,30.05,29.68,15,2,16,0.01
2013-11-13,40,30,22,21,18,13,84,61,34,30.13,30.02,13,1,13,0.00
2013-11-14,53,40,25,24,20,15,83,50,23,30.02,29.92,15,1,15,0.00
2013-11-15,57,41,28,32,26,23,85,60,29,30.00,29.91,7,0,7,0.00
2013-11-16,61,47,33,47,41,28,96,81,54,30.08,29.98,5,0,5,0.03
2013-11-17,61,53,44,59,52,43,98,96,91,30.01,29.53,6,0,7,0.00
2013-11-18,65,59,49,62,43,28,96,59,32,29.55,29.35,19,2,19,0.06
2013-11-19,50,43,35,30,26,23,61,52,44,30.09,29.55,17,3,17,0.00
2013-11-20,45,34,24,23,18,10,75,54,25,30.36,30.09,11,1,11,0.00
2013-11-21,52,38,21,42,31,17,92,76,56,30.36,30.14,7,0,7,0.00
2013-11-22,57,51,46,51,47,42,96,87,79,30.13,29.67,9,0,9,0.06
2013-11-23,53,42,30,49,27,12,93,57,37,29.81,29.67,17,3,17,0.00
2013-11-24,30,25,22,13,6,4,53,44,35,30.14,29.79,21,4,23,0.00
2013-11-25,35,27,16,17,14,8,81,58,45,30.23,30.08,9,1,9,0.00
2013-11-26,43,35,32,42,27,17,97,75,51,30.08,29.49,7,0,7,0.58
2013-11-27,60,46,34,60,42,22,98,89,61,29.53,29.11,18,2,18,1.95
2013-11-28,36,31,26,23,17,12,78,57,38,30.21,29.53,18,2,20,0.00
2013-11-29,39,31,25,25,22,18,88,71,52,30.48,30.21,10,0,11,0.00
2013-11-30,36,29,21,29,22,15,84,73,57,30.50,30.12,5,0,7,0.00
2013-12-1,49,38,27,35,31,25,92,76,54,30.12,29.77,8,0,8,0.00
2013-12-2,49,38,30,36,33,29,94,81,54,29.77,29.63,3,0,3,0.00
2013-12-3,54,38,29,40,32,28,96,83,50,29.76,29.62,8,0,8,0.00
2013-12-4,51,41,31,44,38,30,96,87,71,29.88,29.76,2,0,2,0.00
2013-12-5,57,50,45,56,49,43,98,96,85,29.87,29.68,4,0,4,0.04
2013-12-6,60,48,38,60,46,37,98,95,91,29.91,29.61,15,0,15,0.91
2013-12-7,39,35,29,37,29,19,96,79,59,30.26,29.84,13,1,13,0.07
2013-12-8,32,29,23,29,22,18,96,76,61,30.33,30.10,8,0,9,0.00
2013-12-9,36,34,30,36,33,29,98,97,96,30.11,29.72,8,1,8,0.14
2013-12-10,34,31,22,33,29,20,98,95,90,29.88,29.64,6,0,7,0.01
2013-12-11,33,26,18,22,19,16,94,77,53,30.08,29.88,12,1,14,0.00
2013-12-12,28,24,20,19,11,7,83,59,44,30.11,29.91,13,1,14,0.00
2013-12-13,35,25,13,23,16,9,88,69,50,30.08,29.88,11,1,14,0.01
2013-12-14,28,25,20,26,21,19,95,87,74,30.22,29.52,11,2,11,0.00
2013-12-15,38,33,28,35,29,22,96,86,68,29.59,29.28,14,2,14,0.00
2013-12-16,32,25,14,24,14,10,89,65,45,29.97,29.58,16,2,16,0.00
2013-12-17,28,22,16,27,20,13,95,90,79,29.97,29.68,4,0,4,0.00
2013-12-18,37,25,14,26,20,12,95,82,57,29.93,29.67,14,1,15,0.00
2013-12-19,43,28,15,31,23,14,93,83,56,29.94,29.78,9,0,9,0.07
2013-12-20,50,37,28,35,31,26,96,81,54,29.86,29.72,6,0,8,0.03
2013-12-21,60,43,33,51,40,32,97,89,71,29.76,29.65,10,0,10,0.00
2013-12-22,69,64,48,64,60,46,98,86,76,29.72,29.55,18,2,20,0.02
2013-12-23,60,53,40,58,51,31,98,93,69,29.92,29.66,11,1,13,0.57
2013-12-24,40,34,25,31,24,12,91,65,52,30.11,29.85,16,2,16,0.00
2013-12-25,27,24,18,17,11,8,67,58,49,30.28,30.11,12,1,12,0.00
2013-12-26,35,28,23,29,24,17,91,82,68,30.17,29.92,11,0,12,0.00
2013-12-27,41,29,20,24,22,18,93,78,49,30.11,30.01,11,1,13,0.00
2013-12-28,55,36,22,31,26,20,95,72,38,30.04,29.82,16,1,16,0.00
2013-12-29,42,38,32,41,36,29,97,91,82,29.82,29.19,13,0,13,0.98
2013-12-30,44,34,23,39,27,13,97,77,58,29.94,29.46,12,1,12,0.01
2013-12-31,31,25,18,27,16,11,88,68,52,30.04,29.81,18,1,18,0.00
2014-1-1,33,27,19,22,18,11,87,70,59,30.15,29.98,5,0,9,0.00
2014-1-2,31,25,15,24,21,13,93,84,69,29.98,29.42,17,2,17,0.00